[[{"header":{"parameterUnit":"m.s-1","parameterCategory":1,"la1":30.2991,"la2":30.254,"lo1":-89.0895,"lo2":-89.0444,"dy":0.0017,"dx":0.0017,"nx":28,"ny":28,"refTime":"2023-07-21T09:00:00:Z","depth":0,"parameterNumber":2,"parameterNumberName":"U-component_of_WINDS"},"data":[0,0,0,0,0,0,0,0,0,0,0,0,0,0,0,0,0,0,0,0,0,0,0,0,0,0,0,0,0,0,0,0,0,0,0,0,0,0,0,0,0,0,0,0,0,0,0,0,0,0,0,0,0,0,0,0,0,0,-0.8024,-0.8026,0,-0.8272,-0.8275,-0.8278,-0.8372,-0.8371,-0.837,-0.8369,-0.8625,-0.8632,-0.8639,0,0,0,0,0,0,0,0,0,0,0,0,0,-0.7627,-0.7634,-0.8023,-0.8026,-0.803,-0.8271,-0.8275,-0.8278,-0.8372,-0.8371,-0.837,-0.8369,-0.8622,-0.8631,-0.864,0,0,0,0,0,0,0,0,0,0,0,0,0,-0.783,-0.7636,-0.8023,-0.8105,-0.8115,-0.8271,-0.8275,-0.8279,-0.8372,-0.8371,-0.837,-0.8369,-0.8619,-0.863,-0.8641,-0.8733,0,0,-0.8676,-0.8681,0,0,0,0,0,0,0,0,-0.7818,-0.7844,-0.809,-0.81,-0.8111,-0.829,-0.8229,-0.8431,-0.8372,-0.8275,-0.8369,-0.8368,-0.8514,-0.8534,-0.8583,-0.8745,-0.8756,-0.8677,-0.8683,-0.8688,-0.8691,0,0,0,0,0,0,0,-0.7804,-0.7834,-0.8122,-0.8093,-0.8106,-0.8129,-0.8157,-0.8268,-0.8398,-0.8283,-0.829,-0.8318,-0.852,-0.8572,-0.859,-0.876,-0.8676,-0.8686,-0.8693,-0.8698,-0.9005,-0.9007,0,0,0,0,0,0,-0.7777,-0.7822,-0.8114,-0.8129,-0.7959,-0.8137,-0.8168,-0.8234,-0.8397,-0.8421,-0.8319,-0.8322,-0.8553,-0.8577,-0.8599,-0.8715,-0.8688,-0.8699,-0.8705,-0.9004,-0.9006,-0.9007,0,0,0,0,0,0,-0.7768,-0.7802,-0.8104,-0.7978,-0.8018,-0.8145,-0.8218,-0.8239,-0.8292,-0.8424,-0.8448,-0.8349,-0.8553,-0.8583,-0.8698,-0.8726,-0.8704,-0.8714,-0.9002,-0.9004,-0.9006,-0.8949,0,0,0,0,0,0,-0.7756,-0.7798,-0.7835,-0.7978,-0.8024,-0.82,-0.822,-0.8245,-0.8311,-0.8317,-0.8458,-0.8481,-0.8555,-0.8681,-0.8709,-0.8741,-0.8723,-0.9,-0.9003,-0.9006,-0.895,-0.8949,-0.8949,0,0,0,0,0,-0.7741,-0.7811,-0.7837,-0.7871,-0.8073,-0.8201,-0.8228,-0.8311,-0.8312,-0.835,-0.8434,-0.8476,-0.8717,-0.8692,-0.8725,-0.876,-0.8999,-0.9002,-0.9005,-0.895,-0.8949,-0.8949,0,0,0,0,0,0,-0.767,-0.7831,-0.7862,-0.7979,-0.8075,-0.8217,-0.8268,-0.8309,-0.8408,-0.8409,-0.8509,-0.854,-0.8646,-0.8715,-0.8683,-0.8855,-0.8861,-0.8871,-0.8807,-0.8808,-0.8808,-0.879,-0.8732,0,0,0,0,0,-0.7667,-0.7758,-0.7893,-0.7984,-0.803,-0.814,-0.8199,-0.8254,-0.8358,-0.84,-0.8493,-0.8592,-0.869,-0.8753,-0.885,-0.8959,-0.899,-0.8999,-0.8998,-0.8998,-0.9005,-0.9065,-0.9069,-0.9018,-0.9018,-0.9018,0,0,-0.7664,-0.7763,-0.7814,-0.7972,-0.8053,-0.8143,-0.8174,-0.8269,-0.8337,-0.8415,-0.8528,-0.8599,-0.8716,-0.8827,-0.8881,-0.8887,-0.9026,-0.9002,-0.9,-0.9009,-0.9068,-0.9073,-0.9077,-0.902,-0.9019,-0.9019,0,0,-0.7704,-0.7788,-0.7871,-0.7951,-0.8072,-0.8144,-0.8163,-0.8298,-0.8347,-0.8462,-0.8521,-0.8602,-0.877,-0.885,-0.8912,-0.8975,-0.9016,-0.9004,-0.9004,-0.906,-0.9065,-0.9069,-0.909,-0.9096,-0.9011,-0.9011,-0.9011,0,-0.7684,-0.7823,-0.7909,-0.8,-0.8066,-0.8138,-0.8222,-0.8295,-0.8442,-0.8485,-0.849,-0.8698,-0.8783,-0.8912,-0.8926,-0.8975,-0.8999,-0.899,-0.9057,-0.9062,-0.9067,-0.9088,-0.9096,-0.9008,-0.9009,-0.9009,-0.9009,0,-0.7792,-0.7887,-0.7939,-0.8078,-0.815,-0.8236,-0.8333,-0.8396,-0.8443,-0.8513,-0.8627,-0.873,-0.8848,-0.8882,-0.8931,-0.9017,-0.9017,-0.9038,-0.9046,-0.9068,-0.909,-0.9099,-0.9005,-0.9006,-0.9007,-0.9007,0,0,-0.7798,-0.7979,-0.7997,-0.8059,-0.8195,-0.827,-0.8358,-0.8472,-0.8522,-0.862,-0.8696,-0.8832,-0.8851,-0.8922,-0.8979,-0.9028,-0.9069,-0.9043,-0.9048,-0.9044,-0.9167,-0.9151,-0.9159,-0.9096,-0.9098,-0.9099,-0.9157,0,-0.7856,-0.8017,-0.8094,-0.8221,-0.8308,-0.8375,-0.8451,-0.8542,-0.8609,-0.8692,-0.8765,-0.886,-0.8879,-0.8921,-0.8973,-0.9053,-0.9095,-0.905,-0.9166,-0.9169,-0.9136,-0.9171,-0.9155,-0.9205,-0.9166,-0.9168,-0.9169,0,-0.7946,-0.8041,-0.8176,-0.8298,-0.8338,-0.8405,-0.8514,-0.8592,-0.8695,-0.874,-0.8815,-0.887,-0.8963,-0.8962,-0.909,-0.9058,-0.9109,-0.9155,-0.9159,-0.9174,-0.9171,-0.9186,-0.9224,-0.9231,-0.9183,-0.9182,-0.9181,0,-0.7934,-0.8096,-0.8197,-0.8248,-0.8394,-0.8439,-0.8502,-0.8604,-0.8666,-0.876,-0.8801,-0.8905,-0.8962,-0.904,-0.912,-0.9112,-0.9239,-0.9246,-0.9278,-0.9276,-0.9304,-0.9301,-0.9349,-0.9336,-0.9336,-0.9335,-0.9335,0,-0.7991,-0.8071,-0.8194,-0.8256,-0.8346,-0.8432,-0.8519,-0.8586,-0.8675,-0.875,-0.8814,-0.8883,-0.8984,-0.9065,-0.9128,-0.9223,-0.9249,-0.9286,-0.9302,-0.9281,-0.9276,-0.9317,-0.9316,-0.9338,-0.9337,-0.9337,-0.9336,0,-0.7995,-0.8081,-0.8195,-0.8322,-0.8356,-0.8416,-0.8525,-0.8586,-0.8654,-0.8748,-0.8775,-0.8881,-0.8979,-0.9066,-0.9196,-0.9238,-0.9335,-0.9355,-0.93,-0.9309,-0.9336,-0.9332,-0.9413,-0.9427,-0.9403,-0.9403,-0.9403,0,-0.8026,-0.8089,-0.8221,-0.8275,-0.8337,-0.8424,-0.8487,-0.8572,-0.8635,-0.8754,-0.88,-0.8903,-0.899,-0.9142,-0.9231,-0.9329,-0.9352,-0.9373,-0.9368,-0.9343,-0.9352,-0.9347,-0.9353,-0.9373,-0.9373,-0.9373,-0.9373,0,-0.8071,-0.8109,-0.8197,-0.8299,-0.8371,-0.8456,-0.8542,-0.8582,-0.8684,-0.875,-0.885,-0.8917,-0.9048,-0.9148,-0.9256,-0.9319,-0.9362,-0.9373,-0.9386,-0.9366,-0.9331,-0.9349,-0.9299,-0.9372,-0.9372,-0.9372,-0.9372,-0.9372,-0.809,-0.8147,-0.8248,-0.8343,-0.8415,-0.8493,-0.8557,-0.863,-0.8716,-0.8829,-0.8873,-0.8975,-0.9072,-0.9221,-0.9284,-0.9363,-0.9371,-0.939,-0.9394,-0.9398,-0.9393,-0.9317,-0.9383,-0.9383,-0.9383,-0.9383,-0.9384,0,-0.8137,-0.8204,-0.829,-0.8407,-0.8481,-0.8513,-0.8609,-0.8668,-0.8756,-0.8843,-0.8926,-0.9039,-0.9135,-0.9229,-0.9329,-0.9375,-0.9397,-0.9398,-0.9396,-0.941,-0.9381,-0.936,-0.9378,-0.9378,-0.9378,-0.9378,-0.9378,-0.9378,-0.817,-0.8268,-0.8317,-0.845,-0.8517,-0.8617,-0.8668,-0.8739,-0.8809,-0.8932,-0.9012,-0.9072,-0.9161,-0.9267,-0.9356,-0.9381,-0.9414,-0.941,-0.944,-0.9413,-0.9412,-0.9411,-0.9392,-0.9417,-0.9417,-0.9462,-0.9463,-0.9463]},{"header":{"parameterUnit":"m.s-1","parameterCategory":1,"la1":30.2991,"la2":30.254,"lo1":-89.0895,"lo2":-89.0444,"dy":0.0017,"dx":0.0017,"nx":28,"ny":28,"refTime":"2023-07-21T09:00:00:Z","depth":0,"parameterNumber":3,"parameterNumberName":"V-component_of_WINDS"},"data":[0,0,0,0,0,0,0,0,0,0,0,0,0,0,0,0,0,0,0,0,0,0,0,0,0,0,0,0,0,0,0,0,0,0,0,0,0,0,0,0,0,0,0,0,0,0,0,0,0,0,0,0,0,0,0,0,0,0,0.7493,0.7491,0,0.7324,0.7322,0.732,0.7254,0.7255,0.7255,0.7256,0.7077,0.7072,0.7067,0,0,0,0,0,0,0,0,0,0,0,0,0,0.7755,0.775,0.7493,0.7491,0.7489,0.7324,0.7322,0.732,0.7254,0.7255,0.7256,0.7256,0.7079,0.7073,0.7067,0,0,0,0,0,0,0,0,0,0,0,0,0,0.7619,0.7749,0.7494,0.7437,0.743,0.7325,0.7322,0.7319,0.7254,0.7255,0.7256,0.7256,0.7081,0.7073,0.7066,0.7003,0,0,0.7042,0.7038,0,0,0,0,0,0,0,0,0.7627,0.7609,0.7447,0.7441,0.7433,0.7311,0.7349,0.7213,0.7254,0.7321,0.7256,0.7257,0.7154,0.714,0.7107,0.6995,0.6987,0.7041,0.7036,0.7033,0.7031,0,0,0,0,0,0,0,0.7636,0.7616,0.7426,0.7445,0.7436,0.7418,0.7399,0.7323,0.7235,0.7315,0.731,0.7291,0.715,0.7115,0.7102,0.6984,0.7041,0.7034,0.703,0.7027,0.6811,0.681,0,0,0,0,0,0,0.7656,0.7625,0.7431,0.7421,0.7534,0.7413,0.7392,0.7349,0.7236,0.722,0.7291,0.7289,0.7128,0.7111,0.7096,0.7014,0.7033,0.7026,0.7021,0.6812,0.681,0.6809,0,0,0,0,0,0,0.7662,0.7639,0.7438,0.7521,0.7494,0.7407,0.736,0.7346,0.731,0.7218,0.7201,0.7271,0.7127,0.7107,0.7027,0.7007,0.7022,0.7015,0.6813,0.6811,0.681,0.6851,0,0,0,0,0,0,0.7669,0.7642,0.7618,0.7521,0.749,0.7374,0.7359,0.7342,0.7297,0.7293,0.7194,0.7179,0.7126,0.7039,0.7019,0.6996,0.7009,0.6814,0.6812,0.681,0.6851,0.6851,0.6851,0,0,0,0,0,0.7679,0.7635,0.7617,0.7594,0.7459,0.7373,0.7355,0.7297,0.7296,0.7271,0.7211,0.7182,0.7013,0.7031,0.7008,0.6983,0.6815,0.6813,0.6811,0.6851,0.6851,0.6851,0,0,0,0,0,0,0.773,0.7622,0.76,0.7525,0.7459,0.7362,0.7328,0.7299,0.7231,0.723,0.7159,0.7138,0.7063,0.7015,0.7037,0.6916,0.6912,0.6905,0.695,0.6949,0.6949,0.6962,0.7003,0,0,0,0,0,0.7733,0.7674,0.7581,0.7523,0.7491,0.7416,0.7376,0.7338,0.7266,0.7237,0.7172,0.7102,0.7032,0.6988,0.6919,0.6844,0.682,0.6815,0.6815,0.6816,0.681,0.6765,0.6761,0.6802,0.6802,0.6802,0,0,0.7738,0.7671,0.7637,0.7532,0.7476,0.7415,0.7393,0.7328,0.7281,0.7226,0.7147,0.7097,0.7014,0.6936,0.6898,0.6893,0.6794,0.6812,0.6814,0.6807,0.6762,0.6759,0.6755,0.68,0.68,0.6801,0,0,0.7714,0.7659,0.7604,0.7549,0.7466,0.7416,0.7403,0.731,0.7275,0.7195,0.7153,0.7095,0.6977,0.692,0.6875,0.6831,0.68,0.681,0.681,0.6767,0.6764,0.6761,0.6744,0.6738,0.6805,0.6805,0.6805,0,0.773,0.7637,0.7579,0.7517,0.7471,0.7421,0.7364,0.7312,0.721,0.7179,0.7176,0.7028,0.6968,0.6875,0.6865,0.6831,0.6812,0.6821,0.6769,0.6765,0.6762,0.6745,0.6739,0.6807,0.6807,0.6806,0.6806,0,0.766,0.7596,0.7561,0.7466,0.7416,0.7357,0.7289,0.7245,0.7211,0.7161,0.7079,0.7006,0.6922,0.6897,0.6862,0.6799,0.6798,0.6783,0.6778,0.6761,0.6743,0.6736,0.6809,0.6809,0.6808,0.6808,0,0,0.7663,0.7537,0.7525,0.7481,0.7386,0.7334,0.7272,0.7192,0.7155,0.7086,0.7031,0.6934,0.6919,0.6869,0.6827,0.679,0.6758,0.6778,0.6775,0.6776,0.6682,0.6694,0.6687,0.6738,0.6736,0.6735,0.6689,0,0.7626,0.7515,0.7461,0.7373,0.7313,0.7264,0.7209,0.7144,0.7096,0.7036,0.6982,0.6913,0.69,0.6869,0.683,0.677,0.6738,0.6773,0.6684,0.6682,0.6706,0.6678,0.669,0.665,0.6682,0.668,0.668,0,0.7569,0.7502,0.7409,0.732,0.7293,0.7245,0.7166,0.7111,0.7035,0.7002,0.6946,0.6906,0.6837,0.6838,0.6741,0.6766,0.6726,0.6692,0.6689,0.6677,0.6679,0.6665,0.6636,0.6629,0.6669,0.6669,0.667,0,0.758,0.7466,0.7396,0.7359,0.7255,0.7222,0.7177,0.7102,0.7057,0.6987,0.6957,0.688,0.6838,0.6778,0.6717,0.6723,0.6626,0.6622,0.6596,0.6597,0.6576,0.6578,0.6539,0.6553,0.6553,0.6553,0.6553,0,0.7544,0.7488,0.7399,0.7355,0.7291,0.7229,0.7166,0.7117,0.7051,0.6995,0.6948,0.6897,0.682,0.6759,0.6711,0.6637,0.6619,0.6589,0.6577,0.6593,0.6596,0.6565,0.6566,0.6552,0.6552,0.6552,0.6553,0,0.7544,0.7483,0.7402,0.731,0.7286,0.7243,0.7163,0.7117,0.7067,0.6998,0.6978,0.6898,0.6823,0.6757,0.6658,0.6625,0.655,0.6535,0.6576,0.6569,0.6547,0.6549,0.6485,0.6473,0.6497,0.6496,0.6496,0,0.7525,0.7481,0.7385,0.7346,0.7302,0.7238,0.7192,0.7129,0.7082,0.6993,0.6958,0.6881,0.6815,0.6697,0.6629,0.6553,0.6535,0.6518,0.6523,0.6541,0.6534,0.6537,0.6532,0.6518,0.6518,0.6518,0.6518,0,0.7497,0.7469,0.7406,0.7331,0.7278,0.7216,0.7152,0.7122,0.7047,0.6997,0.6921,0.687,0.6769,0.6692,0.6608,0.6559,0.6525,0.6518,0.6507,0.6522,0.6548,0.6533,0.6575,0.6519,0.6519,0.6519,0.6519,0.6519,0.7486,0.7445,0.7371,0.7302,0.7248,0.7189,0.7142,0.7087,0.7023,0.6937,0.6903,0.6826,0.675,0.6634,0.6585,0.6522,0.6516,0.6502,0.6498,0.6495,0.6497,0.6559,0.6507,0.6507,0.6507,0.6506,0.6506,0,0.7455,0.7405,0.7342,0.7256,0.7201,0.7176,0.7104,0.7059,0.6992,0.6926,0.6863,0.6775,0.67,0.6626,0.6547,0.6511,0.6493,0.6492,0.6493,0.6482,0.6508,0.6524,0.6507,0.6507,0.6507,0.6507,0.6507,0.6507,0.7432,0.7361,0.7324,0.7225,0.7175,0.71,0.7061,0.7006,0.6953,0.6857,0.6796,0.6749,0.6679,0.6594,0.6524,0.6504,0.6476,0.6479,0.6455,0.648,0.648,0.6481,0.6496,0.6474,0.6474,0.6434,0.6434,0.6434]}]]